Regional Weather Roundup
Issued by NWS Pendleton, OR

Current Version | Previous Version | Text Only | Print | Product List | Glossary On
Versions: 1 2 3 4 5 6 7 8 9 10 11 12 13 14 15 16 17 18 19 20 21 22 23 24 25 26 27 28 29 30 31 32 33 34 35 36 37 38 39 40 41 42 43 44 45 46 47 48 49 50
114
ASUS46 KPDT 211925
RWRPDT
PENDLETON REGIONAL WEATHER ROUNDUP
NATIONAL WEATHER SERVICE PENDLETON OREGON
1200 PM PDT SAT APR 21 2018

NOTE: FAIR INDICATES FEW OR NO CLOUDS BELOW 12,000 FEET WITH NO
SIGNIFICANT WEATHER AND/OR OBSTRUCTIONS TO VISIBILITY.

# INDICATES UNOFFICIAL STATION AND DATA

WAZ520-212010-
EAST SLOPES OF WASHINGTON CASCADES

CITY            SKY/WX      TMP DP  RH  WIND    PRES   REMARKS
#BULLFROG       N/A         45  29  53  W10     N/A
#CLE ELUM HS    N/A         44  29  55  SW10    30.23R
#EASTON DOT     N/A         40  30  67  N2      N/A
#ELK HTS DOT    N/A         45  45  100 SW13    N/A    WCI 39
#GLENWOOD       N/A         53  34  48  SW12    30.27F
#NELSON 3SW     N/A         43  30  60  CALM    30.51R
#NILE           N/A         50  27  41  W7      29.58R
#TEANAWAY 4NE   N/A         48  32  54  W6      N/A
#TROUT LAKE 1NE N/A         50  33  52  W12     30.32S
#TROUT LAKE 1E  N/A         52  31  44  CALM    30.35S
$$

WAZ521-212010-
SIMCOE HIGHLANDS

CITY            SKY/WX      TMP DP  RH  WIND    PRES   REMARKS
#BICKLETON HS   N/A         49  23  36  W12     29.91S WCI 44
#SATUS PASS DOT N/A         49  23  36  NE3     N/A
#CENTERVILLE 1SWN/A         50  33  52  W20     30.29S
#GOLDENDALE 1NE N/A         52  13  21  SW7     N/A
#GOLDENDALE 4W  N/A         52  11  19  W16     30.33F
#GOODNOE HILLS  N/A         56  31  38  W22     30.21F
#LYLE 6NE       N/A         50  37  61  SW15    30.35F
#PITT 4SE       N/A         47  34  60  CALM    30.35S
$$

WAZ026-212010-
KITTITAS VALLEY

CITY            SKY/WX      TMP DP  RH  WIND    PRES   REMARKS
ELLENSBURG AP   SUNNY       53  28  38  NW24G33 30.28R
#ELLENSBURG CWU N/A         52  29  41  NW20    30.21R
#ELLENSBURG 3NE N/A         49  30  48  N14     28.33S WCI 44
#ELLENSBURG 1E  N/A         52  31  44  N5      30.31R
#KITTITAS 3S    N/A         52  32  46  NW17    30.23F
#MANASTASH RDG  N/A         49  49  100 NW14    N/A    WCI 44
#ROCKY CYN DOT  N/A         53  31  43  W20     N/A
#RYEGRASS DOT   N/A         48  27  44  CALM    N/A
$$

WAZ027-212010-
YAKIMA VALLEY

CITY            SKY/WX      TMP DP  RH  WIND    PRES   REMARKS
SUNNYSIDE AP    SUNNY       59  27  29  W7      30.28F
YAKIMA AIRPORT  SUNNY       61  20  20  VRB6    30.27F
YAKIMA-VAGABOND SUNNY       57  20  23  N6      30.25S
#DONALD 2NE     N/A         63   6  10  S7      29.10F
#GRANDVIEW      N/A         60  16  18  W5      30.28S
#MABTON         N/A         60  26  27  W2      30.28S
#MOXEE 2E       N/A         37  N/A N/A SW12    29.79S WCI 29
#NACHES 2SW     N/A         56  29  35  W5      30.26R
#OUTLOOK DOT    N/A         60  12  15  CALM    30.25S
#PARKER DOT     N/A         59  13  16  E10     30.26F
#TERRACE HTS    N/A         62  27  26  N1      30.22S
#TOPPENISH      N/A         59  24  26  CALM    30.19S
#I82 S UMTANUM RN/A         55  25  31  S8      N/A
#UNION GAP DOT  N/A         59  19  21  W6      30.30S
#W YAKIMA       N/A         58  26  29  SE1     30.25S
#WHITE SWAN 5E  N/A         60  28  29  SW7     30.27S
#WILEY CITY 3W  N/A         58  13  17  W5      30.24S
#ZILLAH DOT     N/A         60  19  20  W7      N/A
$$

WAZ028-212010-
LOWER COLUMBIA BASIN...WASHINGTON

CITY            SKY/WX      TMP DP  RH  WIND    PRES   REMARKS
HANFORD         MOSUNNY     61  23  23  SW13G26 30.25S
PASCO           SUNNY       64  20  18  W12     30.28F
PROSSER AWOS    N/A         61  23  23  W16     30.31S
RICHLAND AWOS   SUNNY       65  24  21  W12     30.28S
#BASIN CITY 5SW N/A         61  29  30  SW6     30.24F
#BENTON CITY    N/A         63  28  26  W1      30.18F
#CONNELL 5N     N/A         59  33  37  W13     30.23S
#CONNELL 5NW    N/A         60  30  32  W16     30.17F
#ELTOPIA 6NW    N/A         60  28  29  W2      29.23S
#KAHLOTUS       N/A         56  22  26  NW30    30.21F
#KENNEWICK 3S   N/A         61  35  38  SW7     30.26F
#PROSSER DOT    N/A         62  19  19  SW8     30.29S
#SAGEMOOR 2W    N/A         62  28  27  W10     30.12S
#TOUCHET 2S     N/A         60  37  42  W13     30.26F
#WEST PASCO     N/A         66  28  24  CALM    30.31F
$$

WAZ029-212010-
FOOTHILLS OF THE BLUES...WASHINGTON

CITY            SKY/WX      TMP DP  RH  WIND    PRES   REMARKS
WALLA WALLA AP  SUNNY       60  34  37  W18G25  30.28F
#CLYDE 6NW      N/A         57  29  34  SW15    30.23F
#DELANEY DOT    N/A         60  31  33  S12     30.27F
#LOWDEN 2SE     N/A         61  35  38  W15     30.25F
#PLEASANT VIEW 1N/A         57  35  43  SW15    30.27F
#PRESCOTT       N/A         63  36  36  CALM    30.24F
#WHITMAN COLLEGEN/A         58  34  40  SW13    30.32F
#WAITSBURG 5S   N/A         55  37  51  SW9     30.36F
#WAITSBURG 6SSE N/A         55  29  37  S7      30.11F
#WAITSBURG 8N   N/A         79  N/A N/A S9      30.03F
#WALLA WALLA 5E N/A         58  38  47  SW14    N/A
#WHITMAN MISSIONN/A         61  36  39  SW14    30.29F
$$

WAZ030-212010-
BLUE MOUNTAINS...WASHINGTON

CITY            SKY/WX      TMP DP  RH  WIND    PRES   REMARKS
#DIXIE 5SE      N/A         49  32  52  SW21    30.18F WCI 42
$$

ORZ009-041-WAZ024-212010-
COLUMBIA RIVER GORGE

CITY            SKY/WX      TMP DP  RH  WIND    PRES   REMARKS
HOOD RIVER AP   SUNNY       55  32  41  W8      30.38S
THE DALLES AP   SUNNY       60  34  37  N20G25  30.36S
#ARLINGTON AIRPON/A         58  33  39  W17     30.31F
#CELILO DOT     N/A         59  33  37  W8      N/A
#LYLE           N/A         55  35  47  NW14    30.38F
#MARYHILL       N/A         57  29  34  N13     N/A
#MURDOCK        N/A         56  36  47  NW15G24 30.32F
#RUFUS DOT      N/A         59  N/A N/A W12     N/A

$$

ORZ510-212010-
NORTH CENTRAL OREGON

CITY            SKY/WX      TMP DP  RH  WIND    PRES   REMARKS
#ANTELOPE       N/A         50  31  48  CALM    30.18F
#CHENOWITH 1W   N/A         49  34  56  W20     N/A    WCI 42
#COW CYN RST AREN/A         50  N/A N/A W6      N/A
#DUFUR          N/A         55  31  40  N6      30.29S
#DUFUR 9E       N/A         48  29  47  NW20    30.38S WCI 41
#GRASS VALLEY 1SN/A         51  35  54  NW9     30.32S
#KENT DOT       N/A         51  26  37  W8      N/A
#MAUPIN SCHOOL  N/A         58  33  39  E1      30.38F
#SHANIKO 5WSW   N/A         48  25  40  SW10    N/A
#SHANIKO 4NW    N/A         45  28  51  NW9     30.31S
#TYGH VALLEY 2NEN/A         56  34  43  N2      30.30F
#WAPANITIA AIRPON/A         54  34  47  NW7     30.33S
#WASCO 5NE      N/A         53  35  50  W8      30.32S
$$

ORZ511-212010-
CENTRAL OREGON

CITY            SKY/WX      TMP DP  RH  WIND    PRES   REMARKS
BEND AIRPORT    MOSUNNY     55  30  38  N9      30.30F
MADRAS AIRPORT  PTCLDY      52  30  43  N7      30.36S
PRINEVILLE AP   PTCLDY      52  30  43  CALM    30.31F
REDMOND AIRPORT SUNNY       54  31  41  NW10    30.31S
#ASHWOOD SCHOOL N/A         52  30  43  N2      30.27S
#BEND 1SW       N/A         50  34  54  E3      N/A
#BEND-AWBREY    N/A         56  35  45  E3      30.23S
#BEND-KIM LN    N/A         52  34  50  N7      30.21S
#CULVER         N/A         51  30  44  N3      30.11S
#CULVER 8W      N/A         55  24  30  CALM    30.29S
#LAKE BILLY CHINN/A         52  N/A N/A NE5     30.34F
#POWELL BUTTE   N/A         50  32  50  N6      30.22F
#PRINEVILLE     N/A         53  34  48  NW5     30.36F
#PRINEVILLE 3N  N/A         52  34  50  NW2     30.26F
#WARM SPRINGS   N/A         57  31  37  CALM    30.17F

$$


ORZ509-212010-
EAST SLOPES OF OREGON CASCADES

CITY            SKY/WX      TMP DP  RH  WIND    PRES   REMARKS
SISTERS AWOS    N/A         50  30  46  W15     30.25S
#BLUE BOX PASS  N/A         40  N/A N/A NW2     N/A
#CAMP SHERMAN   N/A         54  25  32  SW5     30.36R
#LA PINE 4NW    N/A         50  28  42  W1      30.27F
#LAVA BUTTE DOT N/A         52  27  38  CALM    N/A
#SISTERS ODOT   N/A         50  30  46  NW7     N/A
#SISTERS 3N     N/A         50  30  46  NW2     30.29S
#SUNRIVER       N/A         53  30  41  W2      30.22F
#TUMALO 3W      N/A         51  33  50  NE5     30.13F
#WANOGA BUTTE D N/A         43  N/A N/A E3      N/A

$$

ORZ044-212010-
LOWER COLUMBIA BASIN...OREGON

CITY            SKY/WX      TMP DP  RH  WIND    PRES   REMARKS
HERMISTON       SUNNY       63  33  32  W18G25  30.30F
#BOARDMAN SCHOOLN/A         60  35  39  S14     30.29S
#BOARDMAN 8SW   N/A         59  35  40  W15     30.30F
#ECHO 8SW       N/A         59  32  36  CALM    30.32F
#I-84 EX 198 DOTN/A         56  35  45  NE17    N/A
#IONE SCHOOL    N/A         57  31  37  W8      30.32F
#UMATILLA       N/A         61  32  33  SW17    30.23F
$$

ORZ507-212010-
NORTHERN FOOTHILLS OF THE BLUES

CITY            SKY/WX      TMP DP  RH  WIND    PRES   REMARKS
PENDLETON AIRPT SUNNY       59  23  25  W22G26  30.30S
#ADAMS 3WNW     N/A         57  33  40  W16     30.28F
#ATHENA         N/A         54  33  45  W9      30.31F
#CAYUSE         N/A         55  28  35  W16     30.28F
#HELIX SCHOOL   N/A         55  31  40  N12     30.28F
#HELIX 3N       N/A         54  38  55  SW18    30.29F
#HOLDMAN 5SE    N/A         55  39  55  W13     30.28F
#HOLDMAN 6E     N/A         55  38  53  SW13    30.09S
#M-F GROVE ELEM N/A         59  27  29  SW8     30.26F
#M-FREEWATER 5SEN/A         57  33  40  SW7     30.28F
#PENDLETON DNTN N/A         63  32  31  W5      N/A
#PDT AQUATIC CTRN/A         59  33  37  SW10    30.28S
#PDT SUNRIDGE   N/A         58  30  34  NW7     30.32F
#PENDLETON 6SE  N/A         59  30  33  W12     30.24F
#PENDLETON 7NW  N/A         59  40  49  W9      N/A
#PILOT ROCK 1S  N/A         56  31  38  W6      30.30F
#PILOT ROCK     N/A         57  31  37  CALM    30.30F
#TUTUILLA       N/A         57  30  35  W9      30.35F
#UMAPINE 2E     N/A         61  37  41  SW10    30.26F

$$

ORZ508-212010-
SOUTHERN FOOTHILLS OF THE BLUES

CITY            SKY/WX      TMP DP  RH  WIND    PRES   REMARKS
#AJAX           N/A         53  23  31  CALM    30.45S
#CONDON 5W      N/A         46  25  43  NW5     30.28S
#FOSSIL SCHOOL  N/A         51  30  44  W3      30.23F
#HEPPNER EOC    N/A         55  32  41  W8      30.22F
#HEPPNER 4NE    N/A         50  32  50  W10     30.28F
#LEXINGTON 2SE  N/A         58  33  39  W9      30.27F
#MIKKALO        N/A         55  26  32  NW14    30.41F
#OLEX 4N        N/A         55  35  47  W15     30.30F
#RUGGS 2SW      N/A         51  28  41  W7      30.30F

$$

ORZ502-503-212010-
BLUE MOUNTAINS

CITY            SKY/WX      TMP DP  RH  WIND    PRES   REMARKS
MEACHAM         CLOUDY      47  30  51  MISG    30.29F
#BATTLE MTN DOT N/A         46  29  51  N1      N/A
#GRANITE        N/A         51  28  41  E3      29.88F
#HARDMAN 10S    N/A         45  32  60  CALM    30.37F
#HEPPNER 15SE   N/A         44  32  62  W6      25.78S
#LADD CYN SMT   N/A         48  32  54  NW10    N/A
#LADD CREEK ODOTN/A         50  33  52  NE10    N/A
#N POWDER DOT   N/A         54  34  47  N21     N/A
#PIKES PEAK     N/A         44  25  47  SW28    27.99S WCI 34
#SUMMERVILLE 5NWN/A         51  34  52  NW7     26.90F
#TOLLGATE       N/A         39  27  62  SW7     30.26F
#TROY SCHOOL    N/A         58  30  34  NW7     30.09F
#UKIAH          N/A         50  32  50  W7      30.16F
#WESTON 4E      N/A         48  32  54  SW6     30.24F
$$

ORZ505-212010-
JOHN DAY BASIN

CITY            SKY/WX      TMP DP  RH  WIND    PRES   REMARKS
JOHN DAY        PTCLDY      57  33  40  W3      30.26F
#ANTELOPE 9ESE  N/A         58  31  36  W7      N/A
#MITCHELL 8NW   N/A         47  34  60  N5      30.31R
#MONUMENT HS    N/A         58  29  33  SW7     30.24S
#MT. VERNON 5SE N/A         53  32  45  W2      30.22F
$$

ORZ506-212010-
OCHOCO AND JOHN DAY HIGHLANDS

CITY            SKY/WX      TMP DP  RH  WIND    PRES   REMARKS
#HORSE RIDGE DO N/A         49  27  42  NW8     N/A
#KEYES SMT DOT  N/A         46  30  53  NW6     N/A
#PAULINA ODOT   N/A         55  29  37  SW7     N/A
#PINE MTN OBS   N/A         42  30  62  CALM    N/A
#PRAIRIE CITY   N/A         57  35  43  CALM    30.41S
#SENECA         N/A         52  N/A N/A NE7     N/A
#SENECA 9NW     N/A         51  31  46  CALM    30.20F
$$

ORZ049-212010-
GRANDE RONDE VALLEY

CITY            SKY/WX      TMP DP  RH  WIND    PRES   REMARKS
LA GRANDE       MOCLDY      53  32  45  N13     30.29F
#COVE SCHOOL    N/A         55  35  47  CALM    30.27F
#COVE 6NW       N/A         52  34  50  N5      30.27F
#ELGIN 3N       N/A         53  27  36  SW16    30.23F
#IMBLER SCHOOL  N/A         50  33  52  CALM    30.23F
#ISLAND CITY 4N N/A         54  38  55  N1      30.43F
#LADD CYN DOT   N/A         53  36  52  N3      N/A
#UNION 1S       N/A         55  37  51  N2      30.26F
$$

ORZ050-212010-
WALLOWA COUNTY

CITY            SKY/WX      TMP DP  RH  WIND    PRES   REMARKS
#ENTERPRISE HS  N/A         51  35  54  NW7     30.09F
#IMNAHA SCHOOL  N/A         60  36  41  N6      30.22S
#IMNAHA 10S     N/A         57  37  47  S5      30.19F
#JOSEPH         N/A         50  32  50  N13     30.40F
#JOSEPH 3N      N/A         53  32  45  N7      30.24F
#JOSEPH 3W      N/A         51  38  61  NE7     30.05F
#LOSTINE        N/A         53  35  50  CALM    30.04F
#LOSTINE 3SE    N/A         52  32  46  E14     30.31F
#MT HOWARD 8000 N/A         34  29  82  W3      30.22F
#PROMISE 1S     N/A         46  30  53  W7      30.35S
#WALLOWA LAKE   N/A         53  36  52  N1      30.26F



$$



USA.gov is the U.S. government's official web portal to all federal, state and local government web resources and services.